Location: Elstree
(51.6403°N, 0.2969°W)
Time: 05:56:38
(UTC+00:00)

Terra - Pass Details

Date: 23 June 2021
Orbit: 701 x 703 km, 98.2° (Epoch: 04 August)

Event Time Altitude Azimuth Distance (km) Brightness Sun altitude
Exits shadow 21:11:56 - 145° (SE) 2,389 3.9 -6.1°
Reaches altitude 10° 21:12:29 10° 143° (SE) 2,170 3.7 -6.1°
Maximum altitude 21:17:05 51° 68° (ENE) 888 2.3 -6.6°
Drops below altitude 10° 21:21:43 10° 354° (N) 2,185 5.4 -7.0°
Sets 21:24:01 0° 349° (N) 3,108 6.5 -7.2°
